[Iaude] MPEC C101: 2024 AO11 [a=12.75,e=0.71,i=15.9,H=15.9]

mpec at cfa.harvard.edu mpec at cfa.harvard.edu
Fri Feb 9 09:21:53 EST 2024


M.P.E.C. 2024-C101                             Issued 2024 February 9, 14:20 UT

     The Minor Planet Electronic Circulars contain information on unusual
         minor planets, routine data on comets and natural satellites,
         and occasional editorial announcements.  They are published
    on behalf of Division F of the International Astronomical Union by the
          Minor Planet Center, Smithsonian Astrophysical Observatory,
                          Cambridge, MA 02138, U.S.A.
			  
             Prepared using the Tamkin Foundation Computer Network

                              MPC at CFA.HARVARD.EDU
            URL https://www.minorplanetcenter.net/    ISSN 1523-6714

                                   2024 AO11                                    


Observations:
     K24A11O  C2023 10 13.59262608 47 37.183+08 02 54.32         23.20GVEC101F52
     K24A11O  C2023 10 13.60544208 47 37.804+08 02 51.98         22.33GVEC101F52
     K24A11O  C2023 10 13.61829808 47 38.492+08 02 49.10         22.75GVEC101F52
     K24A11O  C2023 10 13.63115008 47 39.117+08 02 46.08         22.73GVEC101F52
     K24A11O  C2023 11 20.61499609 13 14.882+06 08 34.73         22.57GVEC101F52
     K24A11O  C2023 11 20.62282009 13 15.128+06 08 33.51         22.13GVEC101F52
     K24A11O  C2023 11 22.59710009 14 08.035+06 04 30.67         21.93GVEC101F51
     K24A11O  C2023 11 22.60829509 14 08.308+06 04 29.60         21.90GVEC101F51
     K24A11O  C2023 11 22.61021609 14 08.341+06 04 29.09         22.20GVEC101F51
     K24A11O  C2023 11 22.62063409 14 08.623+06 04 28.03         22.36GVEC101F51
     K24A11O  C2023 11 22.62256809 14 08.674+06 04 27.66         21.69GVEC101F51
     K24A11O  C2023 11 22.63378709 14 08.945+06 04 26.52         21.90GVEC101F51
     K24A11O  C2023 12 08.60020809 19 18.428+05 42 55.13         21.75GVEC101F52
     K24A11O  C2023 12 08.63388509 19 18.830+05 42 53.83         22.27GVEC101F52
     K24A11O  C2023 12 17.51471409 20 33.851+05 41 12.29         22.09GVEC101F51
     K24A11O  C2023 12 17.52606809 20 33.888+05 41 12.50         21.88GVEC101F51
     K24A11O  C2023 12 17.53742109 20 33.928+05 41 12.52         21.90GVEC101F51
     K24A11O  C2023 12 17.54879909 20 33.968+05 41 12.83         21.65GVEC101F51
     K24A11O  C2023 12 24.61284409 20 42.340+05 45 58.94         22.20GVEC101F52
     K24A11O  C2023 12 24.62453609 20 42.303+05 45 59.86         22.14GVEC101F52
     K24A11O  C2023 12 24.63626509 20 42.275+05 46 00.43         22.04GVEC101F52
     K24A11O  C2023 12 24.64797409 20 42.229+05 46 01.12         22.30GVEC101F52
     K24A11O  C2024 01 03.48177009 19 40.924+06 02 16.08         22.01GVEC101F51
     K24A11O  C2024 01 03.49518309 19 40.770+06 02 18.02         21.81GVEC101F51
     K24A11O  C2024 01 03.50870809 19 40.616+06 02 19.80         21.97GVEC101F51
     K24A11O  C2024 01 03.52219809 19 40.464+06 02 21.46         21.99GVEC101F51
     K24A11O  C2024 01 08.48002009 18 38.969+06 14 54.47         21.58GVEC101F51
     K24A11O*1C2024 01 13.38016009 17 20.054+06 30 07.74         21.38GVEC101G96
     K24A11O 1C2024 01 13.38529609 17 20.004+06 30 08.89         21.64GVEC101G96
     K24A11O 1C2024 01 13.39043609 17 19.871+06 30 10.01         21.57GVEC101G96
     K24A11O 1C2024 01 13.39557809 17 19.730+06 30 11.41         21.92GVEC101G96
     K24A11O  C2024 01 20.50004809 14 58.163+06 57 01.34         21.22GVEC101F52
     K24A11O  C2024 01 20.50071209 14 58.148+06 57 01.60         21.24GVEC101F52
     K24A11O  C2024 01 20.51264409 14 57.876+06 57 04.51         21.47GVEC101F52
     K24A11O  C2024 01 20.51328909 14 57.858+06 57 04.51         21.45GVEC101F52
     K24A11O  C2024 01 20.52514009 14 57.588+06 57 07.56         21.30GVEC101F52
     K24A11O  C2024 01 20.52578409 14 57.572+06 57 07.74         21.32GVEC101F52
     K24A11O  C2024 01 20.53763809 14 57.298+06 57 10.72         21.48GVEC101F52
     K24A11O  C2024 01 20.53828809 14 57.284+06 57 10.79         21.28GVEC101F52
     K24A11O 1C2024 02 05.22212209 08 31.189+08 13 00.23         20.94GVEC101G96
     K24A11O 1C2024 02 05.22775209 08 31.038+08 13 02.57         21.82GVEC101G96
     K24A11O 1C2024 02 05.23337209 08 30.887+08 13 04.08         20.90GVEC101G96
     K24A11O 1C2024 02 05.23900209 08 30.714+08 13 05.77         21.15GVEC101G96
     K24A11O  C2024 02 09.33526409 06 43.483+08 35 42.78         21.35wXEC101F52
     K24A11O  C2024 02 09.34689109 06 43.170+08 35 46.72         21.34wXEC101F52
     K24A11O  C2024 02 09.37014109 06 42.535+08 35 54.58         21.32wXEC101F52

Observer details:
F51 Pan-STARRS 1, Haleakala.  Observers J. Herman, T. Lowe, P. Minguez, A.
    Schultz, I. Smith.  Measurers K. Chambers, T. de Boer, J. Fairlamb, H.
    Gao, M. Huber, C.-C. Lin, E. Magnier, Y. Ramanjooloo, R. Wainscoat, R.
    Weryk.  1.8-m Ritchey-Chretien + CCD.
F52 Pan-STARRS 2, Haleakala.  Observers J. Herman, T. Lowe, P. Minguez, A.
    Schultz, I. Smith.  Measurers K. Chambers, T. de Boer, J. Fairlamb, H.
    Gao, M. Huber, C.-C. Lin, E. Magnier, Y. Ramanjooloo, R. Wainscoat, R.
    Weryk.  1.8-m Ritchey-Chretien + CCD.
G96 Mt. Lemmon Survey.  Observers H. Groeller, V. F. Carvajal, D. Rankin.
    Measurers T. Beuden, V. F. Carvajal, D. Fay, J. B. Fazekas, D. C. Fuls, A.
    R. Gibbs, A. D. Grauer, H. Groeller, J. K. Hogan, R. A. Kowalski, S. M.
    Larson, G. J. Leonard, D. Rankin, R. L. Seaman, F. C. Shelly, K. W.
    Wierzchos.  1.5-m reflector + 10K CCD.

Orbital elements:
2024 AO11                                                                       
Epoch 2023 Sept. 13.0 TT = JDT 2460200.5                Bell                    
M 354.20951              (2000.0)            P               Q                  
n   0.02163910     Peri.  359.33485     -0.92183307     -0.37359732             
a  12.7539081      Node   157.83602     +0.35685542     -0.92200747             
e   0.7056546      Incl.   15.87470     +0.15125477     -0.10162322             
P  45.5            H   15.93          G   0.15           U   3                  
Residuals in seconds of arc
231013 F52  0.2+  0.1-    231217 F51  0.0   0.1-    240120 F52  0.1+  0.1+
231013 F52  0.3-  0.2+    231217 F51  0.0   0.0     240120 F52  0.1+  0.0
231013 F52  0.2+  0.1+    231224 F52  0.0   0.0     240120 F52  0.1+  0.1-
231013 F52  0.1-  0.3-    231224 F52  0.1-  0.1+    240120 F52  0.1+  0.0
231120 F52  0.2-  0.1+    231224 F52  0.0   0.0     240120 F52  0.1+  0.0
231120 F52  0.4+  0.1-    231224 F52  0.1-  0.1-    240120 F52  0.1+  0.0
231122 F51  0.0   0.0     240103 F51  0.1-  0.1-    240120 F52  0.1+  0.0
231122 F51  0.1-  0.2+    240103 F51  0.1-  0.1+    240205 G96  0.0   0.2-
231122 F51  0.4-  0.0     240103 F51  0.0   0.0     240205 G96  0.0   0.3+
231122 F51  0.1-  0.1+    240103 F51  0.0   0.1-    240205 G96  0.0   0.0
231122 F51  0.0   0.0     240108 F51  0.1+  0.0     240205 G96  0.3-  0.2-
231122 F51  0.2-  0.2+    240113 G96  0.1+  0.1-    240209 F52  0.0   0.1+
231208 F52  0.1-  0.0     240113 G96  0.8+  0.0     240209 F52  0.0   0.1+
231208 F52  0.1+  0.0     240113 G96  0.2+  0.1+    240209 F52  0.0   0.1+
231217 F51  0.0   0.0     240113 G96  0.4-  0.5+
231217 F51  0.1-  0.1+    240120 F52  0.1+  0.0

Ephemeris:
2024 AO11                a,e,i = 12.75, 0.71, 16                 q = 3.7541
Date    TT    R. A. (2000) Decl.     Delta      r    Elong.  Phase     V
2024 01 10    09 18 16.3 +06 19 21   3.0455  3.9126   147.8     7.7    21.9
...
2024 01 25    09 13 15.2 +07 16 40   2.9293  3.8830   163.4     4.1    21.6
...
2024 02 02    09 09 55.1 +07 55 55   2.8932  3.8683   170.4     2.4    21.4
...
2024 02 08    09 07 18.3 +08 28 16   2.8785  3.8579   172.1     2.0    21.4
2024 02 09    09 06 52.1 +08 33 50   2.8771  3.8562   171.9     2.1    21.4
2024 02 10    09 06 26.1 +08 39 28   2.8760  3.8545   171.5     2.2    21.4
...
2024 02 16    09 03 53.4 +09 13 54   2.8757  3.8447   167.0     3.3    21.5
...
2024 02 24    09 00 48.7 +10 00 39   2.8916  3.8323   159.1     5.3    21.6
...
2024 03 10    08 56 44.9 +11 25 11   2.9678  3.8115   143.4     8.9    21.8

M. P. C. Staff               (C) Copyright 2024 MPC           M.P.E.C. 2024-C101





More information about the Iaude mailing list